<?xml version="1.0" encoding="UTF-8" standalone="no" ?>
<gpx xmlns="http://www.topografix.com/GPX/1/1" xmlns:xsi="http://www.w3.org/2001/XMLSchema-instance" xsi:schemaLocation="http://www.topografix.com/GPX/1/1 http://www.topografix.com/GPX/1/1/gpx.xsd" version="1.1" creator="VisuGPX - https://www.visugpx.com">
  <metadata>
    <name>MARCHE D AUTOMNE 3 - 2024</name>
    <desc><![CDATA[FAIT]]></desc>
  </metadata>
  <trk>
    <name><![CDATA[MARCHE D AUTOMNE 3 LE 20/10/2024-20135054]]></name>
    <trkseg>
      <trkpt lat="49.08756" lon="1.92312">
        <ele>130</ele>
        <time>2025-01-19T12:36:36Z</time>
      </trkpt>
      <trkpt lat="49.08741" lon="1.92328">
        <ele>130</ele>
        <time>2025-01-19T12:37:00Z</time>
      </trkpt>
      <trkpt lat="49.08726" lon="1.92334">
        <ele>130</ele>
        <time>2025-01-19T12:37:21Z</time>
      </trkpt>
      <trkpt lat="49.08696" lon="1.92315">
        <ele>131</ele>
        <time>2025-01-19T12:38:04Z</time>
      </trkpt>
      <trkpt lat="49.08667" lon="1.9229">
        <ele>132</ele>
        <time>2025-01-19T12:38:49Z</time>
      </trkpt>
      <trkpt lat="49.0865" lon="1.92266">
        <ele>132</ele>
        <time>2025-01-19T12:39:20Z</time>
      </trkpt>
      <trkpt lat="49.08667" lon="1.92209">
        <ele>132</ele>
        <time>2025-01-19T12:40:15Z</time>
      </trkpt>
      <trkpt lat="49.08692" lon="1.92153">
        <ele>131</ele>
        <time>2025-01-19T12:41:14Z</time>
      </trkpt>
      <trkpt lat="49.08703" lon="1.92116">
        <ele>131</ele>
        <time>2025-01-19T12:41:49Z</time>
      </trkpt>
      <trkpt lat="49.08704" lon="1.92091">
        <ele>130</ele>
        <time>2025-01-19T12:42:11Z</time>
      </trkpt>
      <trkpt lat="49.08698" lon="1.92083">
        <ele>130</ele>
        <time>2025-01-19T12:42:22Z</time>
      </trkpt>
      <trkpt lat="49.08712" lon="1.9205">
        <ele>130</ele>
        <time>2025-01-19T12:42:56Z</time>
      </trkpt>
      <trkpt lat="49.08715" lon="1.92026">
        <ele>130</ele>
        <time>2025-01-19T12:43:18Z</time>
      </trkpt>
      <trkpt lat="49.08729" lon="1.91998">
        <ele>130</ele>
        <time>2025-01-19T12:43:48Z</time>
      </trkpt>
      <trkpt lat="49.08738" lon="1.9194">
        <ele>130</ele>
        <time>2025-01-19T12:44:40Z</time>
      </trkpt>
      <trkpt lat="49.08755" lon="1.91901">
        <ele>131</ele>
        <time>2025-01-19T12:45:21Z</time>
      </trkpt>
      <trkpt lat="49.08755" lon="1.91893">
        <ele>131</ele>
        <time>2025-01-19T12:45:28Z</time>
      </trkpt>
      <trkpt lat="49.08747" lon="1.91885">
        <ele>131</ele>
        <time>2025-01-19T12:45:41Z</time>
      </trkpt>
      <trkpt lat="49.08722" lon="1.91869">
        <ele>130</ele>
        <time>2025-01-19T12:46:17Z</time>
      </trkpt>
      <trkpt lat="49.0868" lon="1.91832">
        <ele>128</ele>
        <time>2025-01-19T12:47:22Z</time>
      </trkpt>
      <trkpt lat="49.08672" lon="1.91836">
        <ele>128</ele>
        <time>2025-01-19T12:47:33Z</time>
      </trkpt>
      <trkpt lat="49.08665" lon="1.91846">
        <ele>128</ele>
        <time>2025-01-19T12:47:46Z</time>
      </trkpt>
      <trkpt lat="49.08645" lon="1.91906">
        <ele>128</ele>
        <time>2025-01-19T12:48:45Z</time>
      </trkpt>
      <trkpt lat="49.08631" lon="1.91934">
        <ele>127</ele>
        <time>2025-01-19T12:49:16Z</time>
      </trkpt>
      <trkpt lat="49.08623" lon="1.9197">
        <ele>128</ele>
        <time>2025-01-19T12:49:49Z</time>
      </trkpt>
      <trkpt lat="49.08607" lon="1.92008">
        <ele>128</ele>
        <time>2025-01-19T12:50:28Z</time>
      </trkpt>
      <trkpt lat="49.08595" lon="1.92055">
        <ele>129</ele>
        <time>2025-01-19T12:51:12Z</time>
      </trkpt>
      <trkpt lat="49.08566" lon="1.92137">
        <ele>129</ele>
        <time>2025-01-19T12:52:34Z</time>
      </trkpt>
      <trkpt lat="49.08559" lon="1.92176">
        <ele>129</ele>
        <time>2025-01-19T12:53:09Z</time>
      </trkpt>
      <trkpt lat="49.08554" lon="1.92182">
        <ele>129</ele>
        <time>2025-01-19T12:53:18Z</time>
      </trkpt>
      <trkpt lat="49.08536" lon="1.92179">
        <ele>128</ele>
        <time>2025-01-19T12:53:42Z</time>
      </trkpt>
      <trkpt lat="49.08526" lon="1.92184">
        <ele>128</ele>
        <time>2025-01-19T12:53:56Z</time>
      </trkpt>
      <trkpt lat="49.08513" lon="1.92215">
        <ele>130</ele>
        <time>2025-01-19T12:54:28Z</time>
      </trkpt>
      <trkpt lat="49.08507" lon="1.92218">
        <ele>130</ele>
        <time>2025-01-19T12:54:36Z</time>
      </trkpt>
      <trkpt lat="49.08446" lon="1.92206">
        <ele>124</ele>
        <time>2025-01-19T12:55:59Z</time>
      </trkpt>
      <trkpt lat="49.08315" lon="1.9222">
        <ele>119</ele>
        <time>2025-01-19T12:58:54Z</time>
      </trkpt>
      <trkpt lat="49.08296" lon="1.92226">
        <ele>119</ele>
        <time>2025-01-19T12:59:20Z</time>
      </trkpt>
      <trkpt lat="49.08266" lon="1.92225">
        <ele>118</ele>
        <time>2025-01-19T13:00:00Z</time>
      </trkpt>
      <trkpt lat="49.08238" lon="1.92232">
        <ele>117</ele>
        <time>2025-01-19T13:00:38Z</time>
      </trkpt>
      <trkpt lat="49.08228" lon="1.92231">
        <ele>116</ele>
        <time>2025-01-19T13:00:51Z</time>
      </trkpt>
      <trkpt lat="49.08202" lon="1.9224">
        <ele>113</ele>
        <time>2025-01-19T13:01:27Z</time>
      </trkpt>
      <trkpt lat="49.08179" lon="1.92238">
        <ele>111</ele>
        <time>2025-01-19T13:01:57Z</time>
      </trkpt>
      <trkpt lat="49.08156" lon="1.92256">
        <ele>109</ele>
        <time>2025-01-19T13:02:32Z</time>
      </trkpt>
      <trkpt lat="49.08136" lon="1.92283">
        <ele>106</ele>
        <time>2025-01-19T13:03:07Z</time>
      </trkpt>
      <trkpt lat="49.08083" lon="1.92317">
        <ele>100</ele>
        <time>2025-01-19T13:04:24Z</time>
      </trkpt>
      <trkpt lat="49.08067" lon="1.9231">
        <ele>98</ele>
        <time>2025-01-19T13:04:46Z</time>
      </trkpt>
      <trkpt lat="49.08042" lon="1.9231">
        <ele>95</ele>
        <time>2025-01-19T13:05:20Z</time>
      </trkpt>
      <trkpt lat="49.08017" lon="1.923">
        <ele>92</ele>
        <time>2025-01-19T13:05:54Z</time>
      </trkpt>
      <trkpt lat="49.0793" lon="1.92289">
        <ele>81</ele>
        <time>2025-01-19T13:07:51Z</time>
      </trkpt>
      <trkpt lat="49.07903" lon="1.92276">
        <ele>78</ele>
        <time>2025-01-19T13:08:28Z</time>
      </trkpt>
      <trkpt lat="49.07865" lon="1.92273">
        <ele>76</ele>
        <time>2025-01-19T13:09:19Z</time>
      </trkpt>
      <trkpt lat="49.07852" lon="1.92253">
        <ele>76</ele>
        <time>2025-01-19T13:09:44Z</time>
      </trkpt>
      <trkpt lat="49.07879" lon="1.92212">
        <ele>75</ele>
        <time>2025-01-19T13:10:35Z</time>
      </trkpt>
      <trkpt lat="49.07877" lon="1.92194">
        <ele>75</ele>
        <time>2025-01-19T13:10:51Z</time>
      </trkpt>
      <trkpt lat="49.07887" lon="1.92133">
        <ele>74</ele>
        <time>2025-01-19T13:11:46Z</time>
      </trkpt>
      <trkpt lat="49.07875" lon="1.92114">
        <ele>73</ele>
        <time>2025-01-19T13:12:09Z</time>
      </trkpt>
      <trkpt lat="49.07831" lon="1.92089">
        <ele>71</ele>
        <time>2025-01-19T13:13:11Z</time>
      </trkpt>
      <trkpt lat="49.07823" lon="1.92093">
        <ele>71</ele>
        <time>2025-01-19T13:13:23Z</time>
      </trkpt>
      <trkpt lat="49.07763" lon="1.92085">
        <ele>69</ele>
        <time>2025-01-19T13:14:43Z</time>
      </trkpt>
      <trkpt lat="49.07738" lon="1.92075">
        <ele>70</ele>
        <time>2025-01-19T13:15:17Z</time>
      </trkpt>
      <trkpt lat="49.07659" lon="1.92065">
        <ele>77</ele>
        <time>2025-01-19T13:17:03Z</time>
      </trkpt>
      <trkpt lat="49.07624" lon="1.92053">
        <ele>78</ele>
        <time>2025-01-19T13:17:51Z</time>
      </trkpt>
      <trkpt lat="49.07603" lon="1.92032">
        <ele>77</ele>
        <time>2025-01-19T13:18:25Z</time>
      </trkpt>
      <trkpt lat="49.07563" lon="1.9201">
        <ele>78</ele>
        <time>2025-01-19T13:19:21Z</time>
      </trkpt>
      <trkpt lat="49.07508" lon="1.91972">
        <ele>78</ele>
        <time>2025-01-19T13:20:42Z</time>
      </trkpt>
      <trkpt lat="49.07483" lon="1.91962">
        <ele>77</ele>
        <time>2025-01-19T13:21:16Z</time>
      </trkpt>
      <trkpt lat="49.07477" lon="1.91964">
        <ele>77</ele>
        <time>2025-01-19T13:21:25Z</time>
      </trkpt>
      <trkpt lat="49.07465" lon="1.9199">
        <ele>78</ele>
        <time>2025-01-19T13:21:52Z</time>
      </trkpt>
      <trkpt lat="49.07468" lon="1.92014">
        <ele>79</ele>
        <time>2025-01-19T13:22:14Z</time>
      </trkpt>
      <trkpt lat="49.0746" lon="1.92053">
        <ele>80</ele>
        <time>2025-01-19T13:22:49Z</time>
      </trkpt>
      <trkpt lat="49.0745" lon="1.92086">
        <ele>80</ele>
        <time>2025-01-19T13:23:21Z</time>
      </trkpt>
      <trkpt lat="49.07444" lon="1.92126">
        <ele>80</ele>
        <time>2025-01-19T13:23:57Z</time>
      </trkpt>
      <trkpt lat="49.07432" lon="1.92163">
        <ele>79</ele>
        <time>2025-01-19T13:24:33Z</time>
      </trkpt>
      <trkpt lat="49.07425" lon="1.92206">
        <ele>78</ele>
        <time>2025-01-19T13:25:12Z</time>
      </trkpt>
      <trkpt lat="49.07405" lon="1.92276">
        <ele>75</ele>
        <time>2025-01-19T13:26:19Z</time>
      </trkpt>
      <trkpt lat="49.07404" lon="1.92307">
        <ele>75</ele>
        <time>2025-01-19T13:26:46Z</time>
      </trkpt>
      <trkpt lat="49.07384" lon="1.92416">
        <ele>75</ele>
        <time>2025-01-19T13:28:25Z</time>
      </trkpt>
      <trkpt lat="49.07351" lon="1.92517">
        <ele>71</ele>
        <time>2025-01-19T13:30:03Z</time>
      </trkpt>
      <trkpt lat="49.07335" lon="1.92557">
        <ele>68</ele>
        <time>2025-01-19T13:30:44Z</time>
      </trkpt>
      <trkpt lat="49.07311" lon="1.92602">
        <ele>67</ele>
        <time>2025-01-19T13:31:35Z</time>
      </trkpt>
      <trkpt lat="49.07272" lon="1.9266">
        <ele>65</ele>
        <time>2025-01-19T13:32:48Z</time>
      </trkpt>
      <trkpt lat="49.07254" lon="1.92676">
        <ele>64</ele>
        <time>2025-01-19T13:33:16Z</time>
      </trkpt>
      <trkpt lat="49.07158" lon="1.92794">
        <ele>62</ele>
        <time>2025-01-19T13:36:00Z</time>
      </trkpt>
      <trkpt lat="49.07118" lon="1.92828">
        <ele>65</ele>
        <time>2025-01-19T13:37:01Z</time>
      </trkpt>
      <trkpt lat="49.07033" lon="1.92931">
        <ele>73</ele>
        <time>2025-01-19T13:39:26Z</time>
      </trkpt>
      <trkpt lat="49.06992" lon="1.92967">
        <ele>76</ele>
        <time>2025-01-19T13:40:29Z</time>
      </trkpt>
      <trkpt lat="49.06975" lon="1.92993">
        <ele>77</ele>
        <time>2025-01-19T13:41:01Z</time>
      </trkpt>
      <trkpt lat="49.06935" lon="1.93028">
        <ele>79</ele>
        <time>2025-01-19T13:42:03Z</time>
      </trkpt>
      <trkpt lat="49.06901" lon="1.93067">
        <ele>82</ele>
        <time>2025-01-19T13:43:00Z</time>
      </trkpt>
      <trkpt lat="49.0685" lon="1.93116">
        <ele>87</ele>
        <time>2025-01-19T13:44:20Z</time>
      </trkpt>
      <trkpt lat="49.06793" lon="1.9319">
        <ele>89</ele>
        <time>2025-01-19T13:46:00Z</time>
      </trkpt>
      <trkpt lat="49.06791" lon="1.93202">
        <ele>89</ele>
        <time>2025-01-19T13:46:11Z</time>
      </trkpt>
      <trkpt lat="49.06782" lon="1.93214">
        <ele>88</ele>
        <time>2025-01-19T13:46:27Z</time>
      </trkpt>
      <trkpt lat="49.06781" lon="1.93209">
        <ele>89</ele>
        <time>2025-01-19T13:46:31Z</time>
      </trkpt>
      <trkpt lat="49.06784" lon="1.93215">
        <ele>88</ele>
        <time>2025-01-19T13:46:38Z</time>
      </trkpt>
      <trkpt lat="49.06768" lon="1.93229">
        <ele>88</ele>
        <time>2025-01-19T13:47:02Z</time>
      </trkpt>
      <trkpt lat="49.06719" lon="1.93303">
        <ele>82</ele>
        <time>2025-01-19T13:48:34Z</time>
      </trkpt>
      <trkpt lat="49.06661" lon="1.93351">
        <ele>75</ele>
        <time>2025-01-19T13:50:02Z</time>
      </trkpt>
      <trkpt lat="49.06597" lon="1.9337">
        <ele>69</ele>
        <time>2025-01-19T13:51:29Z</time>
      </trkpt>
      <trkpt lat="49.06542" lon="1.93392">
        <ele>65</ele>
        <time>2025-01-19T13:52:45Z</time>
      </trkpt>
      <trkpt lat="49.06518" lon="1.93397">
        <ele>64</ele>
        <time>2025-01-19T13:53:18Z</time>
      </trkpt>
      <trkpt lat="49.06509" lon="1.93403">
        <ele>63</ele>
        <time>2025-01-19T13:53:31Z</time>
      </trkpt>
      <trkpt lat="49.06469" lon="1.93394">
        <ele>60</ele>
        <time>2025-01-19T13:54:25Z</time>
      </trkpt>
      <trkpt lat="49.06453" lon="1.93399">
        <ele>59</ele>
        <time>2025-01-19T13:54:46Z</time>
      </trkpt>
      <trkpt lat="49.06444" lon="1.93405">
        <ele>59</ele>
        <time>2025-01-19T13:55:00Z</time>
      </trkpt>
      <trkpt lat="49.06422" lon="1.93438">
        <ele>57</ele>
        <time>2025-01-19T13:55:41Z</time>
      </trkpt>
      <trkpt lat="49.06378" lon="1.93453">
        <ele>56</ele>
        <time>2025-01-19T13:56:41Z</time>
      </trkpt>
      <trkpt lat="49.06364" lon="1.93454">
        <ele>56</ele>
        <time>2025-01-19T13:57:00Z</time>
      </trkpt>
      <trkpt lat="49.06338" lon="1.93475">
        <ele>56</ele>
        <time>2025-01-19T13:57:39Z</time>
      </trkpt>
      <trkpt lat="49.06317" lon="1.93484">
        <ele>57</ele>
        <time>2025-01-19T13:58:08Z</time>
      </trkpt>
      <trkpt lat="49.06306" lon="1.93484">
        <ele>57</ele>
        <time>2025-01-19T13:58:23Z</time>
      </trkpt>
      <trkpt lat="49.06287" lon="1.93467">
        <ele>57</ele>
        <time>2025-01-19T13:58:52Z</time>
      </trkpt>
      <trkpt lat="49.0627" lon="1.93463">
        <ele>57</ele>
        <time>2025-01-19T13:59:15Z</time>
      </trkpt>
      <trkpt lat="49.06211" lon="1.93428">
        <ele>55</ele>
        <time>2025-01-19T14:00:39Z</time>
      </trkpt>
      <trkpt lat="49.06176" lon="1.93418">
        <ele>55</ele>
        <time>2025-01-19T14:01:27Z</time>
      </trkpt>
      <trkpt lat="49.06169" lon="1.93411">
        <ele>55</ele>
        <time>2025-01-19T14:01:38Z</time>
      </trkpt>
      <trkpt lat="49.06126" lon="1.93407">
        <ele>54</ele>
        <time>2025-01-19T14:02:36Z</time>
      </trkpt>
      <trkpt lat="49.0611" lon="1.93419">
        <ele>55</ele>
        <time>2025-01-19T14:02:59Z</time>
      </trkpt>
      <trkpt lat="49.06102" lon="1.93434">
        <ele>56</ele>
        <time>2025-01-19T14:03:16Z</time>
      </trkpt>
      <trkpt lat="49.06088" lon="1.93438">
        <ele>56</ele>
        <time>2025-01-19T14:03:35Z</time>
      </trkpt>
      <trkpt lat="49.06053" lon="1.93425">
        <ele>54</ele>
        <time>2025-01-19T14:04:23Z</time>
      </trkpt>
      <trkpt lat="49.05981" lon="1.93411">
        <ele>53</ele>
        <time>2025-01-19T14:06:00Z</time>
      </trkpt>
      <trkpt lat="49.0594" lon="1.93409">
        <ele>52</ele>
        <time>2025-01-19T14:06:55Z</time>
      </trkpt>
      <trkpt lat="49.05913" lon="1.93413">
        <ele>52</ele>
        <time>2025-01-19T14:07:31Z</time>
      </trkpt>
      <trkpt lat="49.05893" lon="1.9343">
        <ele>52</ele>
        <time>2025-01-19T14:08:02Z</time>
      </trkpt>
      <trkpt lat="49.05826" lon="1.9347">
        <ele>53</ele>
        <time>2025-01-19T14:09:38Z</time>
      </trkpt>
      <trkpt lat="49.05805" lon="1.93489">
        <ele>53</ele>
        <time>2025-01-19T14:10:10Z</time>
      </trkpt>
      <trkpt lat="49.05792" lon="1.93532">
        <ele>55</ele>
        <time>2025-01-19T14:10:52Z</time>
      </trkpt>
      <trkpt lat="49.05763" lon="1.93555">
        <ele>55</ele>
        <time>2025-01-19T14:11:35Z</time>
      </trkpt>
      <trkpt lat="49.05753" lon="1.93588">
        <ele>56</ele>
        <time>2025-01-19T14:12:07Z</time>
      </trkpt>
      <trkpt lat="49.05726" lon="1.93623">
        <ele>56</ele>
        <time>2025-01-19T14:12:54Z</time>
      </trkpt>
      <trkpt lat="49.05709" lon="1.93633">
        <ele>55</ele>
        <time>2025-01-19T14:13:19Z</time>
      </trkpt>
      <trkpt lat="49.05697" lon="1.93632">
        <ele>54</ele>
        <time>2025-01-19T14:13:35Z</time>
      </trkpt>
      <trkpt lat="49.05679" lon="1.9364">
        <ele>53</ele>
        <time>2025-01-19T14:14:00Z</time>
      </trkpt>
      <trkpt lat="49.05668" lon="1.93652">
        <ele>53</ele>
        <time>2025-01-19T14:14:18Z</time>
      </trkpt>
      <trkpt lat="49.0562" lon="1.93684">
        <ele>52</ele>
        <time>2025-01-19T14:15:28Z</time>
      </trkpt>
      <trkpt lat="49.056" lon="1.93705">
        <ele>51</ele>
        <time>2025-01-19T14:16:00Z</time>
      </trkpt>
      <trkpt lat="49.05525" lon="1.93843">
        <ele>50</ele>
        <time>2025-01-19T14:18:37Z</time>
      </trkpt>
      <trkpt lat="49.05442" lon="1.94038">
        <ele>48</ele>
        <time>2025-01-19T14:22:00Z</time>
      </trkpt>
      <trkpt lat="49.05408" lon="1.94155">
        <ele>49</ele>
        <time>2025-01-19T14:23:52Z</time>
      </trkpt>
      <trkpt lat="49.05401" lon="1.94197">
        <ele>49</ele>
        <time>2025-01-19T14:24:30Z</time>
      </trkpt>
      <trkpt lat="49.05386" lon="1.94239">
        <ele>49</ele>
        <time>2025-01-19T14:25:12Z</time>
      </trkpt>
      <trkpt lat="49.05382" lon="1.94301">
        <ele>49</ele>
        <time>2025-01-19T14:26:06Z</time>
      </trkpt>
      <trkpt lat="49.05361" lon="1.94386">
        <ele>49</ele>
        <time>2025-01-19T14:27:26Z</time>
      </trkpt>
      <trkpt lat="49.05345" lon="1.94409">
        <ele>48</ele>
        <time>2025-01-19T14:27:55Z</time>
      </trkpt>
      <trkpt lat="49.05335" lon="1.94436">
        <ele>48</ele>
        <time>2025-01-19T14:28:22Z</time>
      </trkpt>
      <trkpt lat="49.05321" lon="1.94458">
        <ele>48</ele>
        <time>2025-01-19T14:28:49Z</time>
      </trkpt>
      <trkpt lat="49.05282" lon="1.94556">
        <ele>51</ele>
        <time>2025-01-19T14:30:29Z</time>
      </trkpt>
      <trkpt lat="49.05218" lon="1.94686">
        <ele>49</ele>
        <time>2025-01-19T14:32:52Z</time>
      </trkpt>
      <trkpt lat="49.05181" lon="1.94743">
        <ele>48</ele>
        <time>2025-01-19T14:34:02Z</time>
      </trkpt>
      <trkpt lat="49.05142" lon="1.94781">
        <ele>46</ele>
        <time>2025-01-19T14:35:04Z</time>
      </trkpt>
      <trkpt lat="49.05084" lon="1.94874">
        <ele>46</ele>
        <time>2025-01-19T14:36:56Z</time>
      </trkpt>
      <trkpt lat="49.05084" lon="1.9487">
        <ele>45</ele>
        <time>2025-01-19T14:36:59Z</time>
      </trkpt>
      <trkpt lat="49.05087" lon="1.94877">
        <ele>46</ele>
        <time>2025-01-19T14:37:07Z</time>
      </trkpt>
      <trkpt lat="49.05079" lon="1.94877">
        <ele>46</ele>
        <time>2025-01-19T14:37:17Z</time>
      </trkpt>
      <trkpt lat="49.05066" lon="1.9486">
        <ele>46</ele>
        <time>2025-01-19T14:37:40Z</time>
      </trkpt>
      <trkpt lat="49.05057" lon="1.94858">
        <ele>47</ele>
        <time>2025-01-19T14:37:52Z</time>
      </trkpt>
      <trkpt lat="49.05" lon="1.94908">
        <ele>47</ele>
        <time>2025-01-19T14:39:20Z</time>
      </trkpt>
      <trkpt lat="49.04981" lon="1.94918">
        <ele>47</ele>
        <time>2025-01-19T14:39:47Z</time>
      </trkpt>
      <trkpt lat="49.04847" lon="1.95084">
        <ele>45</ele>
        <time>2025-01-19T14:43:37Z</time>
      </trkpt>
      <trkpt lat="49.04826" lon="1.95102">
        <ele>45</ele>
        <time>2025-01-19T14:44:09Z</time>
      </trkpt>
      <trkpt lat="49.04801" lon="1.95112">
        <ele>45</ele>
        <time>2025-01-19T14:44:44Z</time>
      </trkpt>
      <trkpt lat="49.04785" lon="1.95114">
        <ele>45</ele>
        <time>2025-01-19T14:45:05Z</time>
      </trkpt>
      <trkpt lat="49.04769" lon="1.9511">
        <ele>44</ele>
        <time>2025-01-19T14:45:27Z</time>
      </trkpt>
      <trkpt lat="49.04749" lon="1.95117">
        <ele>44</ele>
        <time>2025-01-19T14:45:54Z</time>
      </trkpt>
      <trkpt lat="49.04713" lon="1.95104">
        <ele>45</ele>
        <time>2025-01-19T14:46:44Z</time>
      </trkpt>
      <trkpt lat="49.04685" lon="1.95102">
        <ele>46</ele>
        <time>2025-01-19T14:47:21Z</time>
      </trkpt>
      <trkpt lat="49.04669" lon="1.95105">
        <ele>46</ele>
        <time>2025-01-19T14:47:43Z</time>
      </trkpt>
      <trkpt lat="49.04593" lon="1.95047">
        <ele>47</ele>
        <time>2025-01-19T14:49:36Z</time>
      </trkpt>
      <trkpt lat="49.04559" lon="1.95029">
        <ele>47</ele>
        <time>2025-01-19T14:50:24Z</time>
      </trkpt>
      <trkpt lat="49.04535" lon="1.94926">
        <ele>45</ele>
        <time>2025-01-19T14:52:00Z</time>
      </trkpt>
      <trkpt lat="49.04524" lon="1.94894">
        <ele>45</ele>
        <time>2025-01-19T14:52:31Z</time>
      </trkpt>
      <trkpt lat="49.04517" lon="1.94854">
        <ele>46</ele>
        <time>2025-01-19T14:53:07Z</time>
      </trkpt>
      <trkpt lat="49.04496" lon="1.94795">
        <ele>47</ele>
        <time>2025-01-19T14:54:06Z</time>
      </trkpt>
      <trkpt lat="49.0449" lon="1.94759">
        <ele>48</ele>
        <time>2025-01-19T14:54:39Z</time>
      </trkpt>
      <trkpt lat="49.04463" lon="1.94671">
        <ele>47</ele>
        <time>2025-01-19T14:56:04Z</time>
      </trkpt>
      <trkpt lat="49.04449" lon="1.94604">
        <ele>46</ele>
        <time>2025-01-19T14:57:05Z</time>
      </trkpt>
      <trkpt lat="49.04402" lon="1.94427">
        <ele>46</ele>
        <time>2025-01-19T14:59:52Z</time>
      </trkpt>
      <trkpt lat="49.04381" lon="1.94357">
        <ele>46</ele>
        <time>2025-01-19T15:00:59Z</time>
      </trkpt>
      <trkpt lat="49.04353" lon="1.94296">
        <ele>46</ele>
        <time>2025-01-19T15:02:05Z</time>
      </trkpt>
      <trkpt lat="49.04337" lon="1.94285">
        <ele>46</ele>
        <time>2025-01-19T15:02:28Z</time>
      </trkpt>
      <trkpt lat="49.04311" lon="1.94279">
        <ele>46</ele>
        <time>2025-01-19T15:03:03Z</time>
      </trkpt>
      <trkpt lat="49.04269" lon="1.94287">
        <ele>47</ele>
        <time>2025-01-19T15:04:00Z</time>
      </trkpt>
      <trkpt lat="49.04243" lon="1.94282">
        <ele>47</ele>
        <time>2025-01-19T15:04:35Z</time>
      </trkpt>
      <trkpt lat="49.04225" lon="1.94285">
        <ele>47</ele>
        <time>2025-01-19T15:04:59Z</time>
      </trkpt>
      <trkpt lat="49.042" lon="1.94299">
        <ele>46</ele>
        <time>2025-01-19T15:05:34Z</time>
      </trkpt>
      <trkpt lat="49.04178" lon="1.94301">
        <ele>45</ele>
        <time>2025-01-19T15:06:04Z</time>
      </trkpt>
      <trkpt lat="49.04162" lon="1.94297">
        <ele>45</ele>
        <time>2025-01-19T15:06:25Z</time>
      </trkpt>
      <trkpt lat="49.04138" lon="1.94282">
        <ele>45</ele>
        <time>2025-01-19T15:07:00Z</time>
      </trkpt>
      <trkpt lat="49.04118" lon="1.9426">
        <ele>46</ele>
        <time>2025-01-19T15:07:33Z</time>
      </trkpt>
      <trkpt lat="49.04068" lon="1.94175">
        <ele>48</ele>
        <time>2025-01-19T15:09:13Z</time>
      </trkpt>
      <trkpt lat="49.04062" lon="1.94142">
        <ele>50</ele>
        <time>2025-01-19T15:09:43Z</time>
      </trkpt>
      <trkpt lat="49.04078" lon="1.94134">
        <ele>51</ele>
        <time>2025-01-19T15:10:05Z</time>
      </trkpt>
      <trkpt lat="49.04084" lon="1.94125">
        <ele>52</ele>
        <time>2025-01-19T15:10:16Z</time>
      </trkpt>
    </trkseg>
  </trk>
</gpx>